Location: S�tio Afonso Gruber
(26.1760°S, 49.5250°W)
Time: 12:54:25
(UTC+00:00)

SKYMED 2 - Pass Details

Date: 07 June 2020
Orbit: 621 x 623 km, 97.9° (Epoch: 08 July)

Event Time Altitude Azimuth Distance (km) Brightness Sun altitude
Rises 09:00:57 0° 164° (SSE) 2,929 7.0 -13.2°
Reaches altitude 10° 09:03:11 10° 161° (SSE) 2,015 6.2 -12.8°
Maximum altitude 09:07:32 62° 79° (E) 705 4.1 -11.9°
Drops below altitude 10° 09:11:49 10° 358° (N) 1,990 6.4 -11.0°
Sets 09:14:01 0° 355° (N) 2,888 7.2 -10.5°
